FW8688 Weather Reports


Display with metric or nautical units.
time (UTC)temp
F
wind
direction
speed
MPH
gust
MPH
rain 1hr
in
rain 24hr
in
rain mn
in
humidity
%
barometer
mb
20210624052314 78 129 8.0 13.0 0.00 0.00 0.00 40 1014.8
20210624051331 78 118 9.0 14.0 0.00 0.00 0.00 40 1014.8
20210624050835 78 100 12.0 14.0 0.00 0.00 0.00 41 1014.7
20210624050339 79 97 7.0 14.0 0.00 0.00 0.00 40 1014.7
20210624043828 81 82 4.0 9.0 0.00 0.00 0.00 34 1014.5
20210624034822 83 129 6.0 12.0 0.00 0.00 0.00 30 1013.2
20210624034326 83 139 3.0 11.0 0.00 0.00 0.00 30 1013.0
20210624033843 83 123 9.0 11.0 0.00 0.00 0.00 28 1012.9
20210624032822 82 127 5.0 11.0 0.00 0.00 0.00 34 1012.6
20210624031840 83 132 7.0 15.0 0.00 0.00 0.00 31 1012.5
20210624030811 84 133 8.0 14.0 0.00 0.00 0.00 25 1012.3
20210624030332 84 144 9.0 14.0 0.00 0.00 0.00 28 1012.5
20210624025827 84 131 9.0 14.0 0.00 0.00 0.00 28 1012.3
20210624025346 85 112 10.0 15.0 0.00 0.00 0.00 30 1012.2
20210624024814 85 116 9.0 15.0 0.00 0.00 0.00 28 1012.2
20210624024311 85 135 9.0 14.0 0.00 0.00 0.00 27 1012.1
20210624023819 85 137 10.0 14.0 0.00 0.00 0.00 29 1012.0
20210624023320 86 142 6.0 10.0 0.00 0.00 0.00 30 1011.9
20210624022811 86 127 5.0 12.0 0.00 0.00 0.00 29 1011.8
20210624021334 87 140 10.0 14.0 0.00 0.00 0.00 27 1011.6
20210624015834 89 145 9.0 11.0 0.00 0.00 0.00 20 1011.6
20210624015330 89 130 8.0 10.0 0.00 0.00 0.00 18 1011.4
20210624014832 89 127 5.0 9.0 0.00 0.00 0.00 18 1011.3
20210624013304 88 136 6.0 8.0 0.00 0.00 0.00 21 1011.3
20210624012827 88 127 4.0 7.0 0.00 0.00 0.00 23 1011.0
20210624012319 88 140 4.0 8.0 0.00 0.00 0.00 24 1011.3
20210624011807 89 132 6.0 8.0 0.00 0.00 0.00 24 1011.0
20210624010332 89 81 3.0 8.0 0.00 0.00 0.00 20 1011.0
20210624005837 89 114 4.0 9.0 0.00 0.00 0.00 22 1011.0
20210624004309 89 112 4.0 8.0 0.00 0.00 0.00 18 1011.0
20210624003842 89 112 3.0 7.0 0.00 0.00 0.00 19 1011.0
20210624003348 89 114 5.0 8.0 0.00 0.00 0.00 18 1011.0
20210624002807 89 110 5.0 8.0 0.00 0.00 0.00 19 1011.0
20210624002338 90 102 2.0 3.0 0.00 0.00 0.00 19 1011.2
20210624001843 90 98 2.0 3.0 0.00 0.00 0.00 18 1011.1
20210624000810 89 98 2.0 5.0 0.00 0.00 0.00 17 1011.1
20210624000345 89 111 1.0 5.0 0.00 0.00 0.00 18 1011.2
20210623235329 89 109 2.0 5.0 0.00 0.00 0.00 16 1011.4
20210623234821 89 112 2.0 7.0 0.00 0.00 0.00 17 1011.2
20210623234306 89 109 5.0 7.0 0.00 0.00 0.00 16 1011.2
20210623233810 89 109 6.0 9.0 0.00 0.00 0.00 15 1011.1
20210623233329 89 119 6.0 9.0 0.00 0.00 0.00 15 1011.3
20210623232817 89 128 4.0 9.0 0.00 0.00 0.00 16 1011.2
20210623232321 89 115 5.0 8.0 0.00 0.00 0.00 16 1011.3
20210623231829 89 111 6.0 9.0 0.00 0.00 0.00 16 1011.2
20210623230825 89 107 5.0 11.0 0.00 0.00 0.00 15 1011.4
20210623225824 90 118 6.0 10.0 0.00 0.00 0.00 17 1011.2
20210623224845 89 106 6.0 10.0 0.00 0.00 0.00 17 1011.3
20210623224342 89 110 5.0 9.0 0.00 0.00 0.00 18 1011.4
20210623223806 89 106 5.0 9.0 0.00 0.00 0.00 19 1011.2
20210623223329 89 108 6.0 13.0 0.00 0.00 0.00 18 1011.4
20210623222808 89 112 9.0 13.0 0.00 0.00 0.00 18 1011.4
20210623222321 89 109 9.0 11.0 0.00 0.00 0.00 17 1011.5
20210623221842 89 112 8.0 10.0 0.00 0.00 0.00 17 1011.4
20210623220812 90 109 6.0 8.0 0.00 0.00 0.00 16 1011.5
20210623220313 90 116 6.0 8.0 0.00 0.00 0.00 16 1011.4
20210623214815 90 118 8.0 14.0 0.00 0.00 0.00 16 1011.7
20210623214324 90 108 7.0 14.0 0.00 0.00 0.00 14 1011.6
20210623212319 90 97 6.0 10.0 0.00 0.00 0.00 15 1012.1
20210623210802 90 133 5.0 10.0 0.00 0.00 0.00 16 1012.0
20210623210329 90 106 8.0 10.0 0.00 0.00 0.00 14 1012.0
20210623205828 90 133 7.0 14.0 0.00 0.00 0.00 15 1012.0
20210623204337 91 98 7.0 13.0 0.00 0.00 0.00 15 1012.0
20210623203846 91 101 7.0 10.0 0.00 0.00 0.00 15 1012.1
20210623202823 91 102 4.0 10.0 0.00 0.00 0.00 16 1012.1
20210623202316 91 124 9.0 10.0 0.00 0.00 0.00 15 1012.1
20210623201838 91 103 6.0 11.0 0.00 0.00 0.00 16 1012.3
20210623200819 90 109 5.0 11.0 0.00 0.00 0.00 16 1012.3
20210623195834 90 119 4.0 11.0 0.00 0.00 0.00 16 1012.3
20210623194828 90 120 7.0 13.0 0.00 0.00 0.00 16 1012.5
20210623193321 89 98 6.0 10.0 0.00 0.00 0.00 15 1012.5
20210623192805 89 125 7.0 10.0 0.00 0.00 0.00 17 1012.6
20210623182314 89 93 5.0 8.0 0.00 0.00 0.00 19 1013.2
20210623181321 88 78 4.0 9.0 0.00 0.00 0.00 20 1013.4
20210623180820 88 88 3.0 9.0 0.00 0.00 0.00 18 1013.4
20210623180338 88 56 4.0 8.0 0.00 0.00 0.00 18 1013.5
20210623175819 87 94 3.0 9.0 0.00 0.00 0.00 18 1013.6
20210623174836 86 84 3.0 9.0 0.00 0.00 0.00 18 1013.7
20210623173815 86 118 6.0 8.0 0.00 0.00 0.00 18 1013.7
20210623173331 86 105 3.0 9.0 0.00 0.00 0.00 19 1013.9
20210623172344 86 103 3.0 8.0 0.00 0.00 0.00 17 1013.8
20210623171339 85 113 4.0 7.0 0.00 0.00 0.00 19 1014.0
20210623170327 85 115 3.0 7.0 0.00 0.00 0.00 18 1013.9
20210623165318 85 106 4.0 5.0 0.00 0.00 0.00 19 1013.8
20210623162316 85 145 2.0 5.0 0.00 0.00 0.00 19 1014.1
20210623161822 84 91 3.0 8.0 0.00 0.00 0.00 20 1014.2
20210623161316 84 120 4.0 8.0 0.00 0.00 0.00 18 1014.2
20210623160811 84 132 5.0 9.0 0.00 0.00 0.00 19 1014.1
20210623160310 84 144 6.0 9.0 0.00 0.00 0.00 20 1014.1
20210623155824 83 105 3.0 7.0 0.00 0.00 0.00 24 1014.3
20210623155326 83 109 5.0 7.0 0.00 0.00 0.00 24 1014.3
20210623154836 82 72 2.0 5.0 0.00 0.00 0.00 31 1014.3
20210623154310 81 94 4.0 5.0 0.00 0.00 0.00 32 1014.1
20210623153809 80 128 2.0 3.0 0.00 0.00 0.00 33 1014.2
20210623153326 80 130 1.0 3.0 0.00 0.00 0.00 35 1014.2
20210623152322 79 113 2.0 5.0 0.00 0.00 0.00 37 1014.2
20210623151802 78 104 3.0 5.0 0.00 0.00 0.00 38 1014.2
20210623151340 77 94 2.0 5.0 0.00 0.00 0.00 36 1014.1
20210623150810 76 69 2.0 4.0 0.00 0.00 0.00 34 1014.2
20210623150325 76 57 1.0 2.0 0.00 0.00 0.00 32 1014.3
20210623145845 76 57 0.0 5.0 0.00 0.00 0.00 35 1014.3
20210623145315 75 57 2.0 5.0 0.00 0.00 0.00 34 1014.1
20210623144332 75 16 2.0 3.0 0.00 0.00 0.00 32 1014.0
20210623143826 75 0 1.0 3.0 0.00 0.00 0.00 34 1014.4
20210623142341 74 355 0.0 2.0 0.00 0.00 0.00 33 1013.9
20210623140825 73 355 0.0 2.0 0.00 0.00 0.00 36 1013.8
20210623140342 73 355 1.0 2.0 0.00 0.00 0.00 36 1014.0
20210623135837 73 355 1.0 2.0 0.00 0.00 0.00 37 1013.7
20210623135331 73 352 0.0 1.0 0.00 0.00 0.00 35 1013.8
20210623134842 73 353 0.0 1.0 0.00 0.00 0.00 35 1013.7
20210623134315 72 352 0.0 1.0 0.00 0.00 0.00 36 1013.7
20210623133833 72 352 0.0 1.0 0.00 0.00 0.00 37 1013.7
20210623132814 72 351 0.0 2.0 0.00 0.00 0.00 32 1013.9
20210623132328 72 352 0.0 2.0 0.00 0.00 0.00 31 1013.6
20210623131835 72 351 1.0 2.0 0.00 0.00 0.00 33 1013.8
20210623131303 71 1 2.0 2.0 0.00 0.00 0.00 34 1013.8
20210623130323 71 14 0.0 1.0 0.00 0.00 0.00 34 1013.5
20210623125827 71 14 0.0 1.0 0.00 0.00 0.00 34 1013.5
20210623124319 70 14 0.0 3.0 0.00 0.00 0.00 28 1013.3
20210623123335 70 14 2.0 5.0 0.00 0.00 0.00 27 1013.5
20210623122821 70 14 3.0 5.0 0.00 0.00 0.00 28 1013.5
20210623121334 70 325 0.0 2.0 0.00 0.00 0.00 27 1013.2
20210623120814 69 325 2.0 2.0 0.00 0.00 0.00 27 1013.0
20210623120336 69 325 0.0 0.0 0.00 0.00 0.00 30 1013.1
20210623115331 70 325 0.0 3.0 0.00 0.00 0.00 32 1013.2
20210623114337 70 325 0.0 2.0 0.00 0.00 0.00 35 1013.0
20210623113841 70 325 0.0 3.0 0.00 0.00 0.00 33 1013.0
20210623113337 70 325 2.0 3.0 0.00 0.00 0.00 33 1012.9
20210623110801 71 325 2.0 4.0 0.00 0.00 0.00 34 1012.7
20210623110322 71 325 2.0 4.0 0.00 0.00 0.00 34 1012.7
20210623105824 72 290 3.0 4.0 0.00 0.00 0.00 33 1012.8
20210623104840 73 194 1.0 3.0 0.00 0.00 0.00 30 1012.5
20210623104328 74 194 1.0 3.0 0.00 0.00 0.00 30 1012.5
20210623102822 76 171 2.0 3.0 0.00 0.00 0.00 28 1012.5
20210623101817 77 116 1.0 3.0 0.00 0.00 0.00 26 1012.4
20210623101333 77 116 1.0 4.0 0.00 0.00 0.00 26 1012.4
20210623100302 78 120 3.0 7.0 0.00 0.00 0.00 24 1012.5
20210623095817 78 115 3.0 7.0 0.00 0.00 0.00 24 1012.6
20210623092819 77 256 3.0 4.0 0.00 0.00 0.00 21 1012.1
20210623091850 77 121 4.0 7.0 0.00 0.00 0.00 19 1011.9
20210623090826 77 122 4.0 9.0 0.00 0.00 0.00 20 1011.7
20210623090319 76 99 4.0 7.0 0.00 0.00 0.00 21 1012.0
20210623085830 77 137 4.0 5.0 0.00 0.00 0.00 23 1012.0
20210623085341 77 186 1.0 6.0 0.00 0.00 0.00 22 1012.1
20210623084828 78 84 2.0 6.0 0.00 0.00 0.00 20 1011.7
20210623084340 77 94 4.0 5.0 0.00 0.00 0.00 19 1011.9
20210623083818 77 62 1.0 3.0 0.00 0.00 0.00 21 1011.7
20210623083328 78 62 2.0 7.0 0.00 0.00 0.00 22 1011.6
20210623082844 77 65 5.0 7.0 0.00 0.00 0.00 21 1011.7
20210623081830 77 37 2.0 8.0 0.00 0.00 0.00 20 1011.8
20210623081307 77 55 6.0 8.0 0.00 0.00 0.00 20 1011.4
20210623080830 77 358 4.0 4.0 0.00 0.00 0.00 20 1011.4
20210623075814 78 305 3.0 4.0 0.00 0.00 0.00 22 1011.5
20210623074820 79 127 1.0 5.0 0.00 0.00 0.00 21 1011.5
20210623074340 79 127 1.0 8.0 0.00 0.00 0.00 21 1011.4
20210623073323 79 117 5.0 9.0 0.00 0.00 0.00 20 1011.4
20210623072822 79 102 4.0 9.0 0.00 0.00 0.00 19 1011.3
20210623071827 80 94 3.0 9.0 0.00 0.00 0.00 19 1011.2
20210623070841 81 109 4.0 13.0 0.00 0.00 0.00 19 1011.0
20210623065346 82 67 6.0 12.0 0.00 0.00 0.00 17 1011.0
20210623064816 81 128 9.0 12.0 0.00 0.00 0.00 16 1011.1
20210623064331 81 80 6.0 9.0 0.00 0.00 0.00 17 1011.0
20210623063848 81 91 4.0 8.0 0.00 0.00 0.00 16 1011.4
20210623063329 81 82 5.0 8.0 0.00 0.00 0.00 16 1011.0
20210623062836 81 64 5.0 10.0 0.00 0.00 0.00 16 1011.0
20210623061807 81 89 4.0 8.0 0.00 0.00 0.00 18 1011.0
20210623060830 79 90 3.0 9.0 0.00 0.00 0.00 20 1011.0
20210623055838 77 67 4.0 7.0 0.00 0.00 0.00 24 1010.9
20210623055327 76 92 2.0 3.0 0.00 0.00 0.00 27 1010.9
20210623053843 78 78 2.0 3.0 0.00 0.00 0.00 31 1010.9